カタログに戻る

COSMOS 1736 FUEL CORE

運用中LEO
NORAD 16809·DEBRIS·🇷🇺 Russia

打ち上げ Mar 21, 1986 から Baikonur Cosmodrome

Loading…

次のパス (今後24時間)

TLE

最新Source: Space-Track

元期: Sep 14, 2026, 10:30 UTC

1 16809U 86024E   26257.43753708 -.00000089  00000-0 -11033-5 0  9995
2 16809  64.9876 274.4793 0032083 196.5814 232.4287 13.81698929 44464

AllMySatでCOSMOS 1736 FUEL COREをリアルタイム追跡

Download on the App Store